| time (UTC) | temp C | wind direction | speed KPH | gust KPH | rain 1hr cm | rain 24hr cm | rain mn cm | humidity % | barometer mb |
| 20260505170131 | 25 | 207 | 3.2 | 9.7 | 0.00 | 0.00 | 0.00 | 78 | 1006.1 |
| 20260505164529 | 25 | 207 | 4.8 | 9.7 | 0.00 | 0.00 | 0.00 | 79 | 1006.0 |
| 20260505163027 | 24 | 207 | 4.8 | 9.7 | 0.00 | 0.00 | 0.00 | 79 | 1006.4 |
| 20260505161525 | 24 | 207 | 3.2 | 8.0 | 0.00 | 0.00 | 0.00 | 80 | 1006.4 |
| 20260505153019 | 23 | 207 | 1.6 | 9.7 | 0.00 | 0.00 | 0.00 | 81 | 1006.3 |
| 20260505151519 | 23 | 207 | 3.2 | 9.7 | 0.00 | 0.00 | 0.00 | 82 | 1006.1 |
| 20260505124502 | 21 | 207 | 0.0 | 4.8 | 0.00 | 0.00 | 0.00 | 88 | 1005.6 |
| 20260505123001 | 21 | 207 | 0.0 | 4.8 | 0.00 | 0.00 | 0.00 | 88 | 1005.8 |
| 20260505121600 | 21 | 207 | 0.0 | 6.4 | 0.00 | 0.00 | 0.00 | 88 | 1005.8 |
| 20260505120121 | 21 | 207 | 1.6 | 6.4 | 0.00 | 0.00 | 0.00 | 88 | 1005.7 |
| 20260505114602 | 21 | 207 | 1.6 | 6.4 | 0.00 | 0.00 | 0.00 | 88 | 1005.7 |
| 20260505113106 | 21 | 207 | 1.6 | 6.4 | 0.00 | 0.00 | 0.00 | 88 | 1005.3 |
| 20260505111558 | 21 | 207 | 1.6 | 9.7 | 0.00 | 0.00 | 0.00 | 88 | 1005.4 |
| 20260505110116 | 21 | 207 | 0.0 | 8.0 | 0.00 | 0.00 | 0.00 | 88 | 1005.3 |
| 20260505101550 | 21 | 207 | 1.6 | 6.4 | 0.00 | 0.00 | 0.00 | 87 | 1005.6 |
| 20260505100049 | 21 | 207 | 1.6 | 8.0 | 0.00 | 0.00 | 0.00 | 86 | 1005.8 |
| 20260505094550 | 21 | 207 | 0.0 | 6.4 | 0.00 | 0.00 | 0.00 | 86 | 1005.7 |
| 20260505093049 | 21 | 207 | 3.2 | 8.0 | 0.00 | 0.00 | 0.00 | 86 | 1005.4 |
| 20260505091548 | 21 | 207 | 1.6 | 8.0 | 0.00 | 0.00 | 0.00 | 86 | 1005.3 |
| 20260505090046 | 21 | 207 | 1.6 | 8.0 | 0.00 | 0.00 | 0.00 | 85 | 1005.5 |
| 20260505084545 | 21 | 207 | 0.0 | 8.0 | 0.00 | 0.00 | 0.00 | 85 | 1005.5 |
| 20260505083044 | 21 | 207 | 1.6 | 8.0 | 0.00 | 0.00 | 0.00 | 85 | 1005.7 |
| 20260505081550 | 21 | 207 | 1.6 | 9.7 | 0.00 | 0.00 | 0.00 | 86 | 1005.8 |
| 20260505080044 | 21 | 207 | 1.6 | 8.0 | 0.00 | 0.00 | 0.00 | 86 | 1005.8 |
| 20260505074539 | 21 | 207 | 1.6 | 9.7 | 0.00 | 0.00 | 0.00 | 86 | 1006.1 |
| 20260505073045 | 21 | 207 | 0.0 | 6.4 | 0.00 | 0.00 | 0.00 | 86 | 1006.4 |
| 20260505071548 | 21 | 207 | 0.0 | 6.4 | 0.00 | 0.00 | 0.00 | 86 | 1006.5 |
| 20260505070034 | 21 | 207 | 0.0 | 4.8 | 0.00 | 0.00 | 0.00 | 86 | 1006.7 |
| 20260505064531 | 21 | 207 | 0.0 | 1.6 | 0.00 | 0.00 | 0.00 | 85 | 1007.0 |
| 20260505063030 | 21 | 207 | 0.0 | 4.8 | 0.00 | 0.00 | 0.00 | 85 | 1007.1 |
| 20260505061532 | 21 | 207 | 0.0 | 1.6 | 0.00 | 0.00 | 0.00 | 84 | 1007.1 |
| 20260505060027 | 21 | 207 | 0.0 | 3.2 | 0.00 | 0.00 | 0.00 | 83 | 1007.1 |
| 20260505054533 | 21 | 207 | 0.0 | 3.2 | 0.00 | 0.00 | 0.00 | 82 | 1007.4 |
| 20260505053032 | 21 | 207 | 0.0 | 3.2 | 0.00 | 0.00 | 0.00 | 82 | 1007.3 |
| 20260505051533 | 22 | 207 | 0.0 | 3.2 | 0.00 | 0.00 | 0.00 | 81 | 1007.3 |
| 20260505041518 | 22 | 207 | 0.0 | 3.2 | 0.00 | 0.00 | 0.00 | 79 | 1007.4 |
| 20260505040032 | 22 | 207 | 0.0 | 3.2 | 0.00 | 0.00 | 0.00 | 79 | 1007.3 |
| 20260505034519 | 22 | 207 | 0.0 | 3.2 | 0.00 | 0.00 | 0.00 | 78 | 1007.5 |
| 20260505033019 | 22 | 207 | 0.0 | 3.2 | 0.00 | 0.00 | 0.00 | 77 | 1007.4 |
| 20260505031515 | 22 | 207 | 0.0 | 4.8 | 0.00 | 0.00 | 0.00 | 77 | 1007.4 |
| 20260505030024 | 22 | 207 | 0.0 | 4.8 | 0.00 | 0.00 | 0.00 | 76 | 1007.5 |
| 20260505024515 | 22 | 207 | 0.0 | 3.2 | 0.00 | 0.00 | 0.00 | 76 | 1007.1 |
| 20260505023018 | 22 | 207 | 0.0 | 6.4 | 0.00 | 0.00 | 0.00 | 75 | 1007.2 |
| 20260505021513 | 23 | 207 | 0.0 | 6.4 | 0.00 | 0.00 | 0.00 | 75 | 1007.0 |
| 20260505020013 | 23 | 207 | 0.0 | 4.8 | 0.00 | 0.00 | 0.00 | 74 | 1007.1 |
| 20260505014512 | 23 | 207 | 0.0 | 1.6 | 0.00 | 0.00 | 0.00 | 73 | 1007.2 |
| 20260505013012 | 23 | 207 | 0.0 | 1.6 | 0.00 | 0.00 | 0.00 | 71 | 1007.1 |
| 20260505011512 | 23 | 207 | 0.0 | 3.2 | 0.00 | 0.00 | 0.00 | 70 | 1007.0 |
| 20260505010010 | 24 | 207 | 0.0 | 6.4 | 0.00 | 0.00 | 0.00 | 69 | 1007.2 |
| 20260505004510 | 24 | 207 | 0.0 | 4.8 | 0.00 | 0.00 | 0.00 | 68 | 1007.1 |
| 20260505003008 | 25 | 207 | 0.0 | 4.8 | 0.00 | 0.00 | 0.00 | 67 | 1007.1 |
| 20260505001507 | 25 | 207 | 0.0 | 6.4 | 0.00 | 0.00 | 0.00 | 66 | 1007.1 |
| 20260505000005 | 25 | 207 | 0.0 | 6.4 | 0.00 | 0.00 | 0.00 | 65 | 1007.3 |
| 20260504234507 | 25 | 207 | 0.0 | 6.4 | 0.00 | 0.00 | 0.00 | 63 | 1007.3 |
| 20260504233007 | 26 | 207 | 0.0 | 8.0 | 0.00 | 0.00 | 0.00 | 62 | 1007.3 |
| 20260504231600 | 26 | 207 | 1.6 | 8.0 | 0.00 | 0.00 | 0.00 | 61 | 1007.6 |
| 20260504230100 | 26 | 207 | 0.0 | 8.0 | 0.00 | 0.00 | 0.00 | 61 | 1007.8 |
| 20260504224601 | 26 | 207 | 3.2 | 9.7 | 0.00 | 0.00 | 0.00 | 59 | 1007.8 |
| 20260504223057 | 26 | 207 | 1.6 | 9.7 | 0.00 | 0.00 | 0.00 | 59 | 1007.9 |
| 20260504221556 | 27 | 207 | 3.2 | 8.0 | 0.00 | 0.00 | 0.00 | 58 | 1008.1 |
| 20260504220112 | 27 | 207 | 0.0 | 8.0 | 0.00 | 0.00 | 0.00 | 57 | 1008.1 |
| 20260504214556 | 27 | 207 | 1.6 | 20.9 | 0.00 | 0.00 | 0.00 | 56 | 1008.4 |
| 20260504213058 | 27 | 207 | 0.0 | 6.4 | 0.00 | 0.00 | 0.00 | 55 | 1008.3 |
| 20260504211553 | 27 | 207 | 0.0 | 9.7 | 0.00 | 0.00 | 0.00 | 54 | 1008.8 |
| 20260504210047 | 27 | 207 | 1.6 | 17.7 | 0.00 | 0.00 | 0.00 | 54 | 1009.0 |
| 20260504204545 | 27 | 207 | 1.6 | 9.7 | 0.00 | 0.00 | 0.00 | 54 | 1009.5 |
| 20260504203042 | 26 | 207 | 0.0 | 8.0 | 0.00 | 0.00 | 0.00 | 54 | 1010.0 |
| 20260504201539 | 27 | 207 | 0.0 | 6.4 | 0.00 | 0.00 | 0.00 | 52 | 1010.4 |
| 20260504200043 | 26 | 207 | 0.0 | 11.3 | 0.00 | 0.00 | 0.00 | 52 | 1010.4 |
| 20260504194541 | 27 | 207 | 0.0 | 6.4 | 0.00 | 0.00 | 0.00 | 50 | 1010.6 |
| 20260504193033 | 26 | 207 | 1.6 | 14.5 | 0.00 | 0.00 | 0.00 | 51 | 1010.9 |
| 20260504191548 | 26 | 207 | 0.0 | 14.5 | 0.00 | 0.00 | 0.00 | 52 | 1011.2 |
| 20260504190031 | 26 | 207 | 1.6 | 9.7 | 0.00 | 0.00 | 0.00 | 50 | 1011.5 |
| 20260504184528 | 26 | 207 | 0.0 | 9.7 | 0.00 | 0.00 | 0.00 | 51 | 1011.6 |
| 20260504183037 | 26 | 207 | 1.6 | 9.7 | 0.00 | 0.00 | 0.00 | 50 | 1011.7 |
| 20260504181526 | 25 | 207 | 1.6 | 11.3 | 0.00 | 0.00 | 0.00 | 51 | 1012.1 |
| 20260504180021 | 26 | 207 | 1.6 | 8.0 | 0.00 | 0.00 | 0.00 | 50 | 1012.3 |
| 20260504174521 | 25 | 207 | 0.0 | 6.4 | 0.00 | 0.00 | 0.00 | 51 | 1012.6 |
| 20260504173015 | 25 | 207 | 0.0 | 6.4 | 0.00 | 0.00 | 0.00 | 52 | 1012.8 |
| 20260504171512 | 25 | 207 | 1.6 | 6.4 | 0.00 | 0.00 | 0.00 | 52 | 1013.1 |